Regional Weather Roundup
Issued by NWS

Home | Current Version | Previous Version | Text Only | Print | Product List | Glossary On
Versions: 1 2 3 4 5 6 7 8 9 10 11 12 13 14 15 16 17 18 19 20 21 22 23 24 25 26 27 28 29 30 31 32 33 34 35 36 37 38 39 40 41 42 43 44 45 46 47 48 49 50
000
ASUS45 KSLC 251010
RWRUT

UTAH REGIONAL WEATHER ROUNDUP
NATIONAL WEATHER SERVICE SALT LAKE CITY UT
400 AM MDT MON SEP 25 2017

UTZ001>011-023>025-251100-

NORTHERN UTAH

CITY           SKY/WX    TMP DP  RH WIND       PRES   REMARKS
BRIGHAM CITY   CLOUDY    44  40  86 NW5       30.13S
HILL AFB       PTCLDY    41  37  86 NE5       30.11F
LOGAN          CLOUDY    44  41  89 NE5       30.12S
OGDEN          PTCLDY    41  38  89 S3        30.11S
SALT LAKE CITY MOCLDY    45  42  89 S7        30.11S
TOOELE VALLEY  MOCLDY    41  36  81 SE5       30.12S
WENDOVER       CLEAR     42  35  76 NE3       30.10S
HEBER CITY     CLOUDY    37  34  87 CALM      30.12S
WEST JORDAN    MOCLDY    41  41 100 S3        30.13S

$$

UTZ011>015-024>027-251100-

CENTRAL/NORTHEAST UTAH

CITY           SKY/WX    TMP DP  RH WIND       PRES   REMARKS
PROVO AIRPORT  MOCLDY    41  39  93 CALM      30.14S
MOAB/CANYONLAN CLEAR     43  31  62 SW8       30.04F
DELTA          CLEAR     34  34 100 NE6       30.12S WCI  29
PRICE          CLEAR     33  30  88 N7        30.07F WCI  27
RICHFIELD      CLEAR     30  30 100 CALM      30.15F
ROOSEVELT      CLEAR     34  32  93 CALM      30.12R
VERNAL         CLEAR     37  35  92 W5        30.10R WCI  33

$$

UTZ013>016-019>022-027-251100-

SOUTHERN UTAH

CITY           SKY/WX    TMP DP  RH WIND       PRES   REMARKS
BRYCE CANYON   CLEAR     24  22  91 NW6       30.13S WCI  17
CEDAR CITY     CLEAR     33  31  92 CALM      30.10S
MILFORD        CLEAR     32  30  92 CALM      30.10F
ST GEORGE      PTSUNNY   50  30  46 SE7       30.02S
HANKSVILLE     CLEAR     37  28  70 CALM      30.09R
KANAB          CLEAR     39  27  60 N8        30.10S WCI  34
BLANDING         N/A     35  21  57 CALM      30.10F

$$

REGIONAL REPORTS     COLORADO/ARIZONA

CITY           SKY/WX    TMP DP  RH WIND       PRES   REMARKS
CRAIG, CO      PTCLDY    27  24  89 CALM      30.12S
GRAND JUNCTION CLEAR     37  30  75 E3        30.05S
RIFLE, CO      CLEAR     38  32  79 CALM      30.08S
MONTROSE, CO   CLEAR     35  26  69 SE9       30.10S WCI  28
CORTEZ, CO     CLEAR     29  26  89 NE6       30.06S WCI  23
PAGE, AZ       CLEAR     51  26  37 CALM      30.02R
GRAND CANYON   CLEAR     23  12  62 CALM      30.08S
KINGMAN, AZ    CLEAR     48  26  42 SE9       29.98F
FLAGSTAFF, AZ  CLEAR     26  11  52 CALM      30.06F

$$

REGIONAL REPORTS    NEVADA/IDAHO/WYOMING

CITY           SKY/WX    TMP DP  RH WIND       PRES   REMARKS
LAS VEGAS, NV  CLEAR     60  26  27 S3        29.97S
ELY, NY        CLEAR     26  24  92 S10       30.14F WCI  16
ELKO, NV       CLOUDY    32  28  85 CALM      30.13R
POCATELLO, ID  CLOUDY    42  36  79 E3        30.10F
BURLEY, ID     CLEAR     38  30  73 SW6       30.08S WCI  33
FORT BRIDGER,  PTSUNNY   36  36 100 W9        30.14S WCI  29
EVANSTON, WY   CLOUDY    34  34 100 SW7       30.12F WCI  28
ROCK SPRINGS,  CLOUDY    35  33  92 CALM      30.10S

$$



USA.gov is the U.S. government's official web portal to all federal, state and local government web resources and services.